• En España
  • Lista de países
  • Para 7 días
  • Temperatura del agua
  • Mapa Satelital
  • El tiempo en el mapa
  • Informadores
  • user-avatar
    Iniciar sesión

    Tiempo cada hora Elkino

    Hoy, 16 Agosto, Jueves

    Tiempo Temperatura Precipitaciones Viento Presión Humedad
    00:00 +13°C° 0 mm 2 mps 744 mmHg 86%
    01:00 +12°C° 0 mm 2 mps 744 mmHg 88%
    02:00 +12°C° 0 mm 1 mps 744 mmHg 90%
    03:00 +11°C° 0 mm 1 mps 744 mmHg 92%
    04:00 +11°C° 0 mm 1 mps 744 mmHg 94%
    05:00 +13°C° 0 mm 1 mps 744 mmHg 87%
    06:00 +14°C° 0 mm 1 mps 744 mmHg 81%
    07:00 +16°C° 0 mm 1 mps 744 mmHg 75%
    08:00 +18°C° 0 mm 1 mps 744 mmHg 68%
    09:00 +20°C° 0 mm 1 mps 743 mmHg 61%
    10:00 +22°C° 0 mm 1 mps 744 mmHg 54%
    11:00 +21°C° 0,3 mm 1 mps 743 mmHg 61%
    12:00 +20°C° 0,3 mm 1 mps 743 mmHg 67%
    13:00 +20°C° 0,3 mm 1 mps 742 mmHg 74%
    14:00 +18°C° 1,2 mm 1 mps 742 mmHg 81%
    15:00 +16°C° 1,2 mm 1 mps 742 mmHg 88%
    16:00 +15°C° 0 mm 2 mps 742 mmHg 94%
    17:00 +15°C° 0,7 mm 2 mps 741 mmHg 95%
    18:00 +15°C° 0,7 mm 2 mps 741 mmHg 96%
    19:00 +14°C° 0,7 mm 2 mps 740 mmHg 97%
    20:00 +14°C° 0,3 mm 2 mps 740 mmHg 98%
    21:00 +14°C° 0,3 mm 1 mps 740 mmHg 98%
    22:00 +14°C° 0,3 mm 1 mps 739 mmHg 98%
    23:00 +14°C° 0,2 mm 1 mps 739 mmHg 98%

    Mañana, 17 Agosto, Viernes

    Tiempo Temperatura Precipitaciones Viento Presión Humedad
    00:00 +14°C° 0,2 mm 2 mps 739 mmHg 98%
    01:00 +14°C° 0,2 mm 2 mps 739 mmHg 98%
    02:00 +14°C° 0,5 mm 2 mps 739 mmHg 98%
    03:00 +12°C° 0,5 mm 3 mps 739 mmHg 97%
    04:00 +12°C° 0,5 mm 3 mps 740 mmHg 97%
    05:00 +12°C° 0,6 mm 3 mps 740 mmHg 97%
    06:00 +12°C° 0,6 mm 3 mps 740 mmHg 97%
    07:00 +11°C° 0,6 mm 3 mps 741 mmHg 96%
    08:00 +11°C° 0,3 mm 3 mps 741 mmHg 95%
    09:00 +12°C° 0,3 mm 3 mps 742 mmHg 95%
    10:00 +12°C° 0,3 mm 3 mps 742 mmHg 94%
    11:00 +13°C° 0,1 mm 3 mps 742 mmHg 84%
    12:00 +14°C° 0,1 mm 3 mps 743 mmHg 74%
    13:00 +17°C° 0,1 mm 3 mps 743 mmHg 64%
    14:00 +17°C° 0,1 mm 3 mps 743 mmHg 62%
    15:00 +17°C° 0,1 mm 3 mps 743 mmHg 60%
    16:00 +18°C° 0,1 mm 3 mps 743 mmHg 57%
    17:00 +16°C° 0,2 mm 3 mps 744 mmHg 64%
    18:00 +15°C° 0,2 mm 2 mps 744 mmHg 71%
    19:00 +14°C° 0,2 mm 2 mps 744 mmHg 78%
    20:00 +12°C° 0 mm 2 mps 744 mmHg 82%
    21:00 +10°C° 0 mm 2 mps 744 mmHg 86%
    22:00 +9°C° 0 mm 2 mps 745 mmHg 90%
    23:00 +8°C° 0 mm 2 mps 745 mmHg 91%

    Pasado mañana, 18 Agosto, Sábado

    Tiempo Temperatura Precipitaciones Viento Presión Humedad
    00:00 +8°C° 0 mm 2 mps 745 mmHg 92%
    01:00 +8°C° 0 mm 2 mps 745 mmHg 93%
    02:00 +8°C° 0 mm 2 mps 745 mmHg 93%
    03:00 +7°C° 0 mm 2 mps 746 mmHg 93%
    04:00 +7°C° 0 mm 2 mps 746 mmHg 93%
    05:00 +8°C° 0 mm 2 mps 746 mmHg 89%
    06:00 +9°C° 0 mm 2 mps 746 mmHg 85%
    07:00 +10°C° 0 mm 2 mps 747 mmHg 82%
    08:00 +13°C° 0,1 mm 2 mps 747 mmHg 76%
    09:00 +13°C° 0,1 mm 3 mps 747 mmHg 71%
    10:00 +14°C° 0,1 mm 3 mps 747 mmHg 65%
    11:00 +16°C° 0,2 mm 3 mps 747 mmHg 63%
    12:00 +16°C° 0,2 mm 3 mps 747 mmHg 60%
    13:00 +17°C° 0,2 mm 3 mps 747 mmHg 57%
    14:00 +16°C° 0,1 mm 3 mps 747 mmHg 60%
    15:00 +16°C° 0,1 mm 3 mps 747 mmHg 62%
    16:00 +14°C° 0,1 mm 3 mps 747 mmHg 65%
    17:00 +15°C° 0 mm 2 mps 747 mmHg 69%
    18:00 +14°C° 0 mm 2 mps 748 mmHg 73%
    19:00 +13°C° 0 mm 2 mps 748 mmHg 77%
    20:00 +12°C° 0 mm 2 mps 748 mmHg 81%
    21:00 +10°C° 0 mm 1 mps 749 mmHg 85%
    22:00 +9°C° 0 mm 1 mps 749 mmHg 89%
    23:00 +9°C° 0 mm 1 mps 749 mmHg 91%

    19 Agosto, Domingo

    Tiempo Temperatura Precipitaciones Viento Presión Humedad
    00:00 +8°C° 0 mm 1 mps 749 mmHg 93%
    01:00 +7°C° 0 mm 1 mps 749 mmHg 94%
    02:00 +7°C° 0 mm 1 mps 750 mmHg 95%
    03:00 +7°C° 0 mm 1 mps 750 mmHg 95%
    04:00 +7°C° 0 mm 1 mps 750 mmHg 95%
    05:00 +8°C° 0 mm 1 mps 750 mmHg 89%
    06:00 +9°C° 0 mm 1 mps 751 mmHg 83%
    07:00 +11°C° 0 mm 1 mps 751 mmHg 78%
    08:00 +13°C° 0 mm 1 mps 751 mmHg 68%
    09:00 +15°C° 0 mm 2 mps 751 mmHg 58%
    10:00 +16°C° 0 mm 2 mps 751 mmHg 49%
    11:00 +17°C° 0 mm 2 mps 750 mmHg 46%
    12:00 +18°C° 0 mm 2 mps 750 mmHg 43%
    13:00 +19°C° 0 mm 2 mps 750 mmHg 41%
    14:00 +20°C° 0 mm 1 mps 750 mmHg 41%
    15:00 +20°C° 0 mm 1 mps 749 mmHg 41%
    16:00 +20°C° 0 mm 1 mps 749 mmHg 40%
    17:00 +19°C° 0 mm 1 mps 749 mmHg 49%
    18:00 +16°C° 0 mm 1 mps 749 mmHg 58%
    19:00 +14°C° 0 mm 1 mps 749 mmHg 66%
    20:00 +13°C° 0 mm 1 mps 749 mmHg 70%
    21:00 +12°C° 0 mm 1 mps 749 mmHg 75%
    22:00 +10°C° 0 mm 1 mps 749 mmHg 79%
    23:00 +10°C° 0 mm 1 mps 749 mmHg 81%

    20 Agosto, Lunes

    Tiempo Temperatura Precipitaciones Viento Presión Humedad
    00:00 +9°C° 0 mm 1 mps 750 mmHg 83%
    01:00 +9°C° 0 mm 1 mps 750 mmHg 85%
    02:00 +9°C° 0 mm 1 mps 750 mmHg 86%
    03:00 +9°C° 0 mm 1 mps 750 mmHg 88%
    04:00 +9°C° 0 mm 1 mps 750 mmHg 89%
    05:00 +10°C° 0 mm 1 mps 750 mmHg 83%
    06:00 +12°C° 0 mm 1 mps 750 mmHg 78%
    07:00 +14°C° 0 mm 1 mps 750 mmHg 72%
    08:00 +16°C° 0 mm 1 mps 749 mmHg 64%
    09:00 +20°C° 0 mm 1 mps 749 mmHg 57%
    10:00 +22°C° 0 mm 1 mps 749 mmHg 49%
    11:00 +23°C° 0 mm 1 mps 749 mmHg 48%
    12:00 +22°C° 0 mm 0 mps 748 mmHg 47%
    13:00 +22°C° 0 mm 0 mps 748 mmHg 46%
    14:00 +22°C° 0 mm 0 mps 748 mmHg 47%
    15:00 +22°C° 0 mm 0 mps 748 mmHg 49%
    16:00 +21°C° 0 mm 0 mps 748 mmHg 51%
    17:00 +22°C° 0 mm 1 mps 747 mmHg 57%
    18:00 +20°C° 0 mm 1 mps 747 mmHg 64%
    19:00 +18°C° 0 mm 1 mps 747 mmHg 71%
    20:00 +16°C° 0 mm 1 mps 747 mmHg 75%
    21:00 +15°C° 0 mm 1 mps 747 mmHg 78%
    22:00 +14°C° 0 mm 1 mps 747 mmHg 82%
    23:00 +13°C° 0 mm 1 mps 747 mmHg 85%

    21 Agosto, Martes

    Tiempo Temperatura Precipitaciones Viento Presión Humedad
    00:00 +13°C° 0 mm 1 mps 747 mmHg 87%
    01:00 +12°C° 0 mm 1 mps 747 mmHg 89%
    02:00 +12°C° 0 mm 1 mps 747 mmHg 91%
    03:00 +12°C° 0 mm 1 mps 747 mmHg 93%
    04:00 +12°C° 0 mm 1 mps 747 mmHg 94%
    05:00 +13°C° 0 mm 1 mps 747 mmHg 90%
    06:00 +15°C° 0 mm 1 mps 747 mmHg 86%
    07:00 +16°C° 0 mm 1 mps 747 mmHg 81%
    08:00 +18°C° 0 mm 2 mps 746 mmHg 74%
    09:00 +20°C° 0 mm 2 mps 746 mmHg 67%
    10:00 +23°C° 0 mm 2 mps 746 mmHg 60%
    11:00 +23°C° 0 mm 2 mps 746 mmHg 57%
    12:00 +24°C° 0 mm 3 mps 745 mmHg 53%
    13:00 +25°C° 0 mm 3 mps 745 mmHg 50%
    14:00 +25°C° 0 mm 3 mps 745 mmHg 50%
    15:00 +25°C° 0 mm 3 mps 744 mmHg 50%
    16:00 +25°C° 0 mm 3 mps 744 mmHg 50%
    17:00 +22°C° 0 mm 3 mps 744 mmHg 58%
    18:00 +20°C° 0 mm 2 mps 744 mmHg 66%
    19:00 +19°C° 0 mm 2 mps 744 mmHg 74%
    20:00 +18°C° 0 mm 2 mps 744 mmHg 79%
    21:00 +16°C° 0 mm 2 mps 744 mmHg 83%
    22:00 +15°C° 0 mm 2 mps 744 mmHg 88%
    23:00 +15°C° 0 mm 2 mps 744 mmHg 90%
    Mostrar más